This demonstration page uses our WeatherBlox Daily Observations layout. Learn more.

Left ArrowRight Arrow

Hourly Observations for December 6, 2022

Temp ( °F °C ) Dew Point ( °F °C ) Humidity (%) Winds ( mph kmh ) Pressure ( in mb ) Visibility ( mi km ) Precip ( " mm )
12:55 am 00:55 Partly Cloudy 28 -2.4 16 -9.1 60 60 NNE 6 9 30.02 1017 10 16 0.00 0.00
1:55 am 01:55 Mostly Cloudy 27 -2.8 16 -9.1 62 62 N 7 11 30.04 1017 10 16 0.00 0.00
2:55 am 02:55 Cloudy 27 -3 15 -9.3 62 62 NE 8 13 30.04 1017 10 16 0.00 0.00
3:55 am 03:55 Partly Cloudy 26 -3.6 15 -9.2 65 65 undefined N/A 30.04 1017 10 16 0.00 0.00
4:55 am 04:55 Mostly Cloudy 26 -3.6 16 -9 66 66 undefined N/A 30.02 1017 10 16 0.00 0.00
5:55 am 05:55 Cloudy 26 -3.6 16 -8.8 67 67 ENE 6 9 30.02 1017 10 16 0.00 0.00
6:55 am 06:55 Cloudy 26 -3.3 16 -8.8 66 66 E 3 6 30.05 1018 10 16 0.00 0.00
7:55 am 07:55 Cloudy 27 -3 16 -8.7 65 65 Calm 30.07 1018 10 16 0.00 0.00
8:55 am 08:55 Cloudy 28 -2.4 17 -8.5 63 63 NNW 5 7 30.09 1019 10 16 0.00 0.00
9:55 am 09:55 Mostly Cloudy 29 -1.8 17 -8.3 61 61 Calm 30.09 1019 10 16 0.00 0.00
10:55 am 10:55 Sunny 32 -0.1 18 -7.8 56 56 SSE 5 7 30.06 1018 10 16 0.00 0.00
11:55 am 11:55 Sunny 34 1.1 19 -7.4 53 53 undefined N/A 30.06 1018 10 16 0.00 0.00
12:55 pm 12:55 Mostly Cloudy 38 3.4 20 -6.9 47 47 S 6 9 30.01 1016 10 16 0.00 0.00
1:55 pm 13:55 Sunny 41 5 21 -6.3 44 44 S 3 6 30.02 1017 10 16 0.00 0.00
2:55 pm 14:55 Sunny 43 6.1 21 -6.2 41 41 SW 3 6 30.01 1016 10 16 0.00 0.00
3:55 pm 15:55 Sunny 43 6.2 20 -6.4 40 40 S 8 13 30.01 1016 10 16 0.00 0.00
4:55 pm 16:55 Sunny 41 4.8 21 -6.1 45 45 Calm 30.04 1017 10 16 0.00 0.00
5:55 pm 17:55 Clear 38 3.2 20 -6.5 49 49 Calm 30.06 1018 10 16 0.00 0.00
6:55 pm 18:55 Clear 33 0.6 21 -6.3 60 60 Calm 30.09 1019 10 16 0.00 0.00
7:55 pm 19:55 Clear 32 -0.2 20 -6.6 62 62 Calm 30.11 1020 10 16 0.00 0.00
8:55 pm 20:55 Clear 30 -1.3 20 -6.6 67 67 Calm 30.13 1020 10 16 0.00 0.00
9:55 pm 21:55 Clear 28 -2.5 20 -6.5 74 74 Calm 30.14 1021 10 16 0.00 0.00
10:55 pm 22:55 Clear 26 -3.1 20 -6.9 75 75 E 3 6 30.16 1021 10 16 0.00 0.00
11:55 pm 23:55 Clear 27 -3 19 -7 74 74 E 3 6 30.18 1022 10 16 0.00 0.00

Powered by AerisWeather